Year,Month,Day,Hour,Minute,Value (Times are PST for temperature in C)
2010,04,11,00,00,4.30
2010,04,11,00,01,4.30
2010,04,11,00,02,4.20
2010,04,11,00,03,4.20
2010,04,11,00,04,4.20
2010,04,11,00,05,4.10
2010,04,11,00,06,4.10
2010,04,11,00,07,4.10
2010,04,11,00,08,4.00
2010,04,11,00,09,4.00
2010,04,11,00,10,4.00
2010,04,11,00,11,3.90
2010,04,11,00,12,3.90
2010,04,11,00,13,3.90
2010,04,11,00,14,3.90
2010,04,11,00,15,3.90
2010,04,11,00,16,3.80
2010,04,11,00,17,3.80
2010,04,11,00,18,3.80
2010,04,11,00,19,3.80
2010,04,11,00,20,3.80
2010,04,11,00,21,3.80
2010,04,11,00,22,3.80
2010,04,11,00,23,3.80
2010,04,11,00,24,3.80
2010,04,11,00,25,3.80
2010,04,11,00,26,3.80
2010,04,11,00,27,3.80
2010,04,11,00,28,3.80
2010,04,11,00,29,3.80
2010,04,11,00,30,3.80
2010,04,11,00,31,3.80
2010,04,11,00,32,3.80
2010,04,11,00,33,3.70
2010,04,11,00,34,3.70
2010,04,11,00,35,3.70
2010,04,11,00,36,3.70
2010,04,11,00,37,3.70
2010,04,11,00,38,3.60
2010,04,11,00,39,3.60
2010,04,11,00,40,3.60
2010,04,11,00,41,3.60
2010,04,11,00,42,3.60
2010,04,11,00,43,3.60
2010,04,11,00,44,3.60
2010,04,11,00,45,3.60
2010,04,11,00,46,3.60
2010,04,11,00,47,3.60
2010,04,11,00,48,3.60
2010,04,11,00,49,3.50
2010,04,11,00,50,3.50
2010,04,11,00,51,3.50
2010,04,11,00,52,3.50
2010,04,11,00,53,3.40
2010,04,11,00,54,3.40
2010,04,11,00,55,3.40
2010,04,11,00,56,3.30
2010,04,11,00,57,3.30
2010,04,11,00,58,3.30
2010,04,11,00,59,3.30
2010,04,11,01,00,3.30
2010,04,11,01,01,3.30
2010,04,11,01,02,3.30
2010,04,11,01,03,3.30
2010,04,11,01,04,3.30
2010,04,11,01,05,3.30
2010,04,11,01,06,3.30
2010,04,11,01,07,3.30
2010,04,11,01,08,3.30
2010,04,11,01,09,3.30
2010,04,11,01,10,3.30
2010,04,11,01,11,3.30
2010,04,11,01,12,3.20
2010,04,11,01,13,3.20
2010,04,11,01,14,3.20
2010,04,11,01,15,3.20
2010,04,11,01,16,3.20
2010,04,11,01,17,3.20
2010,04,11,01,18,3.20
2010,04,11,01,19,3.20
2010,04,11,01,20,3.20
2010,04,11,01,21,3.20
2010,04,11,01,22,3.20
2010,04,11,01,23,3.30
2010,04,11,01,24,3.30
2010,04,11,01,25,3.30
2010,04,11,01,26,3.30
2010,04,11,01,27,3.30
2010,04,11,01,28,3.30
2010,04,11,01,29,3.20
2010,04,11,01,30,3.20
2010,04,11,01,31,3.20
2010,04,11,01,32,3.20
2010,04,11,01,33,3.20
2010,04,11,01,34,3.20
2010,04,11,01,35,3.20
2010,04,11,01,36,3.20
2010,04,11,01,37,3.20
2010,04,11,01,38,3.20
2010,04,11,01,39,3.20
2010,04,11,01,40,3.30
2010,04,11,01,41,3.30
2010,04,11,01,42,3.30
2010,04,11,01,43,3.30
2010,04,11,01,44,3.30
2010,04,11,01,45,3.30
2010,04,11,01,46,3.30
2010,04,11,01,47,3.30
2010,04,11,01,48,3.30
2010,04,11,01,49,3.30
2010,04,11,01,50,3.30
2010,04,11,01,51,3.20
2010,04,11,01,52,3.20
2010,04,11,01,53,3.20
2010,04,11,01,54,3.10
2010,04,11,01,55,3.10
2010,04,11,01,56,3.10
2010,04,11,01,57,3.10
2010,04,11,01,58,3.10
2010,04,11,01,59,3.10
2010,04,11,02,00,3.10
2010,04,11,02,01,3.10
2010,04,11,02,02,3.10
2010,04,11,02,03,3.10
2010,04,11,02,04,3.10
2010,04,11,02,05,3.20
2010,04,11,02,06,3.20
2010,04,11,02,07,3.20
2010,04,11,02,08,3.20
2010,04,11,02,09,3.20
2010,04,11,02,10,3.20
2010,04,11,02,11,3.20
2010,04,11,02,12,3.20
2010,04,11,02,13,3.20
2010,04,11,02,14,3.20
2010,04,11,02,15,3.20
2010,04,11,02,16,3.20
2010,04,11,02,17,3.20
2010,04,11,02,18,3.20
2010,04,11,02,19,3.20
2010,04,11,02,20,3.20
2010,04,11,02,21,3.20
2010,04,11,02,22,3.20
2010,04,11,02,23,3.20
2010,04,11,02,24,3.20
2010,04,11,02,25,3.20
2010,04,11,02,26,3.20
2010,04,11,02,27,3.20
2010,04,11,02,28,3.30
2010,04,11,02,29,3.30
2010,04,11,02,30,3.30
2010,04,11,02,31,3.40
2010,04,11,02,32,3.40
2010,04,11,02,33,3.40
2010,04,11,02,34,3.50
2010,04,11,02,35,3.50
2010,04,11,02,36,3.50
2010,04,11,02,37,3.50
2010,04,11,02,38,3.50
2010,04,11,02,39,3.50
2010,04,11,02,40,3.40
2010,04,11,02,41,3.40
2010,04,11,02,42,3.40
2010,04,11,02,43,3.40
2010,04,11,02,44,3.40
2010,04,11,02,45,3.40
2010,04,11,02,46,3.30
2010,04,11,02,47,3.30
2010,04,11,02,48,3.30
2010,04,11,02,49,3.30
2010,04,11,02,50,3.30
2010,04,11,02,51,3.20
2010,04,11,02,52,3.20
2010,04,11,02,53,3.20
2010,04,11,02,54,3.20
2010,04,11,02,55,3.20
2010,04,11,02,56,3.20
2010,04,11,02,57,3.20
2010,04,11,02,58,3.20
2010,04,11,02,59,3.20
2010,04,11,03,00,3.20
2010,04,11,03,01,3.20
2010,04,11,03,02,3.20
2010,04,11,03,03,3.20
2010,04,11,03,04,3.30
2010,04,11,03,05,3.30
2010,04,11,03,06,3.30
2010,04,11,03,07,3.40
2010,04,11,03,08,3.50
2010,04,11,03,09,3.60
2010,04,11,03,10,3.70
2010,04,11,03,11,3.70
2010,04,11,03,12,3.80
2010,04,11,03,13,3.80
2010,04,11,03,14,3.90
2010,04,11,03,15,4.00
2010,04,11,03,16,4.10
2010,04,11,03,17,4.20
2010,04,11,03,18,4.20
2010,04,11,03,19,4.20
2010,04,11,03,20,4.20
2010,04,11,03,21,4.20
2010,04,11,03,22,4.20
2010,04,11,03,23,4.30
2010,04,11,03,24,4.20
2010,04,11,03,25,4.20
2010,04,11,03,26,4.20
2010,04,11,03,27,4.20
2010,04,11,03,28,4.20
2010,04,11,03,29,4.10
2010,04,11,03,30,4.10
2010,04,11,03,31,4.00
2010,04,11,03,32,4.00
2010,04,11,03,33,3.90
2010,04,11,03,34,3.90
2010,04,11,03,35,3.90
2010,04,11,03,36,3.90
2010,04,11,03,37,3.90
2010,04,11,03,38,3.90
2010,04,11,03,39,3.90
2010,04,11,03,40,3.90
2010,04,11,03,41,3.90
2010,04,11,03,42,3.90
2010,04,11,03,43,3.90
2010,04,11,03,44,4.00
2010,04,11,03,45,4.00
2010,04,11,03,46,4.00
2010,04,11,03,47,4.00
2010,04,11,03,48,4.10
2010,04,11,03,49,4.10
2010,04,11,03,50,4.10
2010,04,11,03,51,4.10
2010,04,11,03,52,4.10
2010,04,11,03,53,4.10
2010,04,11,03,54,4.10
2010,04,11,03,55,4.10
2010,04,11,03,56,4.10
2010,04,11,03,57,4.10
2010,04,11,03,58,4.10
2010,04,11,03,59,4.10
2010,04,11,04,00,4.10
2010,04,11,04,01,4.10
2010,04,11,04,02,4.10
2010,04,11,04,03,4.10
2010,04,11,04,04,4.00
2010,04,11,04,05,4.00
2010,04,11,04,06,3.90
2010,04,11,04,07,3.80
2010,04,11,04,08,3.80
2010,04,11,04,09,3.80
2010,04,11,04,10,3.70
2010,04,11,04,11,3.70
2010,04,11,04,12,3.70
2010,04,11,04,13,3.70
2010,04,11,04,14,3.60
2010,04,11,04,15,3.60
2010,04,11,04,16,3.60
2010,04,11,04,17,3.50
2010,04,11,04,18,3.50
2010,04,11,04,19,3.50
2010,04,11,04,20,3.40
2010,04,11,04,21,3.40
2010,04,11,04,22,3.40
2010,04,11,04,23,3.40
2010,04,11,04,24,3.40
2010,04,11,04,25,3.30
2010,04,11,04,26,3.30
2010,04,11,04,27,3.30
2010,04,11,04,28,3.30
2010,04,11,04,29,3.20
2010,04,11,04,30,3.20
2010,04,11,04,31,3.20
2010,04,11,04,32,3.20
2010,04,11,04,33,3.10
2010,04,11,04,34,3.10
2010,04,11,04,35,3.10
2010,04,11,04,36,3.10
2010,04,11,04,37,3.10
2010,04,11,04,38,3.10
2010,04,11,04,39,3.10
2010,04,11,04,40,3.10
2010,04,11,04,41,3.10
2010,04,11,04,42,3.10
2010,04,11,04,43,3.00
2010,04,11,04,44,3.00
2010,04,11,04,45,3.00
2010,04,11,04,46,3.00
2010,04,11,04,47,2.90
2010,04,11,04,48,2.90
2010,04,11,04,49,2.90
2010,04,11,04,50,2.90
2010,04,11,04,51,2.90
2010,04,11,04,52,2.90
2010,04,11,04,53,3.00
2010,04,11,04,54,3.00
2010,04,11,04,55,3.00
2010,04,11,04,56,3.00
2010,04,11,04,57,3.00
2010,04,11,04,58,3.00
2010,04,11,04,59,3.00
2010,04,11,05,00,3.00
2010,04,11,05,01,3.00
2010,04,11,05,02,2.90
2010,04,11,05,03,2.90
2010,04,11,05,04,2.80
2010,04,11,05,05,2.80
2010,04,11,05,06,2.70
2010,04,11,05,07,2.70
2010,04,11,05,08,2.60
2010,04,11,05,09,2.60
2010,04,11,05,10,2.60
2010,04,11,05,11,2.60
2010,04,11,05,12,2.50
2010,04,11,05,13,2.50
2010,04,11,05,14,2.50
2010,04,11,05,15,2.40
2010,04,11,05,16,2.40
2010,04,11,05,17,2.40
2010,04,11,05,18,2.30
2010,04,11,05,19,2.30
2010,04,11,05,20,2.30
2010,04,11,05,21,2.30
2010,04,11,05,22,2.20
2010,04,11,05,23,2.20
2010,04,11,05,24,2.20
2010,04,11,05,25,2.20
2010,04,11,05,26,2.10
2010,04,11,05,27,2.10
2010,04,11,05,28,2.10
2010,04,11,05,29,2.10
2010,04,11,05,30,2.10
2010,04,11,05,31,2.00
2010,04,11,05,32,2.00
2010,04,11,05,33,2.00
2010,04,11,05,34,2.00
2010,04,11,05,35,2.00
2010,04,11,05,36,1.90
2010,04,11,05,37,1.90
2010,04,11,05,38,1.90
2010,04,11,05,39,1.90
2010,04,11,05,40,1.80
2010,04,11,05,41,1.80
2010,04,11,05,42,1.80
2010,04,11,05,43,1.80
2010,04,11,05,44,1.80
2010,04,11,05,45,1.80
2010,04,11,05,46,1.80
2010,04,11,05,47,1.80
2010,04,11,05,48,1.70
2010,04,11,05,49,1.70
2010,04,11,05,50,1.80
2010,04,11,05,51,1.80
2010,04,11,05,52,1.80
2010,04,11,05,53,1.80
2010,04,11,05,54,1.80
2010,04,11,05,55,1.90
2010,04,11,05,56,1.90
2010,04,11,05,57,1.90
2010,04,11,05,58,1.80
2010,04,11,05,59,1.80
2010,04,11,06,00,1.80
2010,04,11,06,01,1.80
2010,04,11,06,02,1.80
2010,04,11,06,03,1.80
2010,04,11,06,04,1.80
2010,04,11,06,05,1.80
2010,04,11,06,06,1.70
2010,04,11,06,07,1.70
2010,04,11,06,08,1.70
2010,04,11,06,09,1.70
2010,04,11,06,10,1.70
2010,04,11,06,11,1.70
2010,04,11,06,12,1.60
2010,04,11,06,13,1.60
2010,04,11,06,14,1.60
2010,04,11,06,15,1.60
2010,04,11,06,16,1.60
2010,04,11,06,17,1.60
2010,04,11,06,18,1.60
2010,04,11,06,19,1.60
2010,04,11,06,20,1.60
2010,04,11,06,21,1.60
2010,04,11,06,22,1.50
2010,04,11,06,23,1.60
2010,04,11,06,24,1.50
2010,04,11,06,25,1.50
2010,04,11,06,26,1.50
2010,04,11,06,27,1.50
2010,04,11,06,28,1.50
2010,04,11,06,29,1.50
2010,04,11,06,30,1.50
2010,04,11,06,31,1.50
2010,04,11,06,32,1.50
2010,04,11,06,33,1.50
2010,04,11,06,34,1.60
2010,04,11,06,35,1.60
2010,04,11,06,36,1.60
2010,04,11,06,37,1.60
2010,04,11,06,38,1.60
2010,04,11,06,39,1.60
2010,04,11,06,40,1.60
2010,04,11,06,41,1.60
2010,04,11,06,42,1.60
2010,04,11,06,43,1.60
2010,04,11,06,44,1.60
2010,04,11,06,45,1.60
2010,04,11,06,46,1.60
2010,04,11,06,47,1.60
2010,04,11,06,48,1.60
2010,04,11,06,49,1.60
2010,04,11,06,50,1.60
2010,04,11,06,51,1.60
2010,04,11,06,52,1.60
2010,04,11,06,53,1.60
2010,04,11,06,54,1.60
2010,04,11,06,55,1.60
2010,04,11,06,56,1.70
2010,04,11,06,57,1.70
2010,04,11,06,58,1.70
2010,04,11,06,59,1.70
2010,04,11,07,00,1.70
2010,04,11,07,01,1.70
2010,04,11,07,02,1.70
2010,04,11,07,03,1.70
2010,04,11,07,04,1.80
2010,04,11,07,05,1.80
2010,04,11,07,06,1.80
2010,04,11,07,07,1.80
2010,04,11,07,08,1.80
2010,04,11,07,09,1.80
2010,04,11,07,10,1.80
2010,04,11,07,11,1.80
2010,04,11,07,12,1.80
2010,04,11,07,13,1.80
2010,04,11,07,14,1.90
2010,04,11,07,15,1.90
2010,04,11,07,16,1.90
2010,04,11,07,17,1.90
2010,04,11,07,18,1.90
2010,04,11,07,19,2.00
2010,04,11,07,20,2.00
2010,04,11,07,21,2.10
2010,04,11,07,22,2.10
2010,04,11,07,23,2.10
2010,04,11,07,24,2.10
2010,04,11,07,25,2.20
2010,04,11,07,26,2.20
2010,04,11,07,27,2.20
2010,04,11,07,28,2.20
2010,04,11,07,29,2.20
2010,04,11,07,30,2.30
2010,04,11,07,31,2.30
2010,04,11,07,32,2.30
2010,04,11,07,33,2.30
2010,04,11,07,34,2.30
2010,04,11,07,35,2.30
2010,04,11,07,36,2.40
2010,04,11,07,37,2.40
2010,04,11,07,38,2.40
2010,04,11,07,39,2.40
2010,04,11,07,40,2.50
2010,04,11,07,41,2.50
2010,04,11,07,42,2.60
2010,04,11,07,43,2.60
2010,04,11,07,44,2.60
2010,04,11,07,45,2.70
2010,04,11,07,46,2.70
2010,04,11,07,47,2.70
2010,04,11,07,48,2.80
2010,04,11,07,49,2.90
2010,04,11,07,50,3.00
2010,04,11,07,51,3.10
2010,04,11,07,52,3.20
2010,04,11,07,53,3.30
2010,04,11,07,54,3.40
2010,04,11,07,55,3.60
2010,04,11,07,56,3.70
2010,04,11,07,57,3.80
2010,04,11,07,58,3.90
2010,04,11,07,59,4.00
2010,04,11,08,00,4.20
2010,04,11,08,01,4.30
2010,04,11,08,02,4.40
2010,04,11,08,03,4.50
2010,04,11,08,04,4.60
2010,04,11,08,05,4.70
2010,04,11,08,06,4.80
2010,04,11,08,07,4.90
2010,04,11,08,08,5.00
2010,04,11,08,09,5.00
2010,04,11,08,10,5.10
2010,04,11,08,11,5.20
2010,04,11,08,12,5.20
2010,04,11,08,13,5.30
2010,04,11,08,14,5.30
2010,04,11,08,15,5.30
2010,04,11,08,16,5.30
2010,04,11,08,17,5.40
2010,04,11,08,18,5.40
2010,04,11,08,19,5.40
2010,04,11,08,20,5.50
2010,04,11,08,21,5.50
2010,04,11,08,22,5.50
2010,04,11,08,23,5.60
2010,04,11,08,24,5.60
2010,04,11,08,25,5.60
2010,04,11,08,26,5.70
2010,04,11,08,27,5.70
2010,04,11,08,28,5.70
2010,04,11,08,29,5.80
2010,04,11,08,30,5.80
2010,04,11,08,31,5.80
2010,04,11,08,32,5.90
2010,04,11,08,33,5.90
2010,04,11,08,34,5.90
2010,04,11,08,35,6.00
2010,04,11,08,36,6.10
2010,04,11,08,37,6.10
2010,04,11,08,38,6.20
2010,04,11,08,39,6.30
2010,04,11,08,40,6.30
2010,04,11,08,41,6.40
2010,04,11,08,42,6.40
2010,04,11,08,43,6.50
2010,04,11,08,44,6.50
2010,04,11,08,45,6.60
2010,04,11,08,46,6.60
2010,04,11,08,47,6.70
2010,04,11,08,48,6.70
2010,04,11,08,49,6.80
2010,04,11,08,50,6.80
2010,04,11,08,51,6.80
2010,04,11,08,52,6.90
2010,04,11,08,53,6.90
2010,04,11,08,54,7.00
2010,04,11,08,55,7.00
2010,04,11,08,56,7.10
2010,04,11,08,57,7.10
2010,04,11,08,58,7.10
2010,04,11,08,59,7.20
2010,04,11,09,00,7.20
2010,04,11,09,01,7.20
2010,04,11,09,02,7.30
2010,04,11,09,03,7.30
2010,04,11,09,04,7.30
2010,04,11,09,05,7.30
2010,04,11,09,06,7.40
2010,04,11,09,07,7.40
2010,04,11,09,08,7.40
2010,04,11,09,09,7.40
2010,04,11,09,10,7.50
2010,04,11,09,11,7.50
2010,04,11,09,12,7.50
2010,04,11,09,13,7.50
2010,04,11,09,14,7.60
2010,04,11,09,15,7.60
2010,04,11,09,16,7.60
2010,04,11,09,17,7.60
2010,04,11,09,18,7.60
2010,04,11,09,19,7.60
2010,04,11,09,20,7.60
2010,04,11,09,21,7.60
2010,04,11,09,22,7.60
2010,04,11,09,23,7.60
2010,04,11,09,24,7.60
2010,04,11,09,25,7.60
2010,04,11,09,26,7.60
2010,04,11,09,27,7.60
2010,04,11,09,28,7.70
2010,04,11,09,29,7.70
2010,04,11,09,30,7.70
2010,04,11,09,31,7.70
2010,04,11,09,32,7.70
2010,04,11,09,33,7.70
2010,04,11,09,34,7.70
2010,04,11,09,35,7.70
2010,04,11,09,36,7.70
2010,04,11,09,37,7.70
2010,04,11,09,38,7.70
2010,04,11,09,39,7.70
2010,04,11,09,40,7.70
2010,04,11,09,41,7.70
2010,04,11,09,42,7.70
2010,04,11,09,43,7.70
2010,04,11,09,44,7.70
2010,04,11,09,45,7.70
2010,04,11,09,46,7.60
2010,04,11,09,47,7.60
2010,04,11,09,48,7.60
2010,04,11,09,49,7.60
2010,04,11,09,50,7.60
2010,04,11,09,51,7.60
2010,04,11,09,52,7.60
2010,04,11,09,53,7.60
2010,04,11,09,54,7.60
2010,04,11,09,55,7.60
2010,04,11,09,56,7.60
2010,04,11,09,57,7.60
2010,04,11,09,58,7.50
2010,04,11,09,59,7.60
2010,04,11,10,00,7.60
2010,04,11,10,01,7.60
2010,04,11,10,02,7.60
2010,04,11,10,03,7.60
2010,04,11,10,04,7.60
2010,04,11,10,05,7.60
2010,04,11,10,06,7.60
2010,04,11,10,07,7.60
2010,04,11,10,08,7.60
2010,04,11,10,09,7.70
2010,04,11,10,10,7.70
2010,04,11,10,11,7.70
2010,04,11,10,12,7.70
2010,04,11,10,13,7.80
2010,04,11,10,14,7.80
2010,04,11,10,15,7.80
2010,04,11,10,16,7.90
2010,04,11,10,17,7.90
2010,04,11,10,18,7.90
2010,04,11,10,19,8.00
2010,04,11,10,20,8.00
2010,04,11,10,21,8.10
2010,04,11,10,22,8.10
2010,04,11,10,23,8.20
2010,04,11,10,24,8.30
2010,04,11,10,25,8.30
2010,04,11,10,26,8.40
2010,04,11,10,27,8.50
2010,04,11,10,28,8.60
2010,04,11,10,29,8.60
2010,04,11,10,30,8.70
2010,04,11,10,31,8.80
2010,04,11,10,32,8.80
2010,04,11,10,33,8.80
2010,04,11,10,34,8.90
2010,04,11,10,35,8.90
2010,04,11,10,36,9.00
2010,04,11,10,37,9.00
2010,04,11,10,38,9.10
2010,04,11,10,39,9.10
2010,04,11,10,40,9.10
2010,04,11,10,41,9.20
2010,04,11,10,42,9.20
2010,04,11,10,43,9.30
2010,04,11,10,44,9.30
2010,04,11,10,45,9.30
2010,04,11,10,46,9.30
2010,04,11,10,47,9.40
2010,04,11,10,48,9.40
2010,04,11,10,49,9.40
2010,04,11,10,50,9.50
2010,04,11,10,51,9.50
2010,04,11,10,52,9.60
2010,04,11,10,53,9.70
2010,04,11,10,54,9.70
2010,04,11,10,55,9.70
2010,04,11,10,56,9.80
2010,04,11,10,57,9.80
2010,04,11,10,58,9.90
2010,04,11,10,59,9.90
2010,04,11,11,00,10.00
2010,04,11,11,01,10.10
2010,04,11,11,02,10.10
2010,04,11,11,03,10.20
2010,04,11,11,04,10.20
2010,04,11,11,05,10.30
2010,04,11,11,06,10.30
2010,04,11,11,07,10.30
2010,04,11,11,08,10.30
2010,04,11,11,09,10.30
2010,04,11,11,10,10.30
2010,04,11,11,11,10.40
2010,04,11,11,12,10.50
2010,04,11,11,13,10.50
2010,04,11,11,14,10.60
2010,04,11,11,15,10.60
2010,04,11,11,16,10.60
2010,04,11,11,17,10.60
2010,04,11,11,18,10.60
2010,04,11,11,19,10.70
2010,04,11,11,20,10.70
2010,04,11,11,21,10.70
2010,04,11,11,22,10.70
2010,04,11,11,23,10.70
2010,04,11,11,24,10.70
2010,04,11,11,25,10.80
2010,04,11,11,26,10.80
2010,04,11,11,27,10.80
2010,04,11,11,28,10.90
2010,04,11,11,29,10.90
2010,04,11,11,30,10.90
2010,04,11,11,31,10.90
2010,04,11,11,32,10.90
2010,04,11,11,33,10.90
2010,04,11,11,34,10.90
2010,04,11,11,35,10.90
2010,04,11,11,36,10.90
2010,04,11,11,37,11.00
2010,04,11,11,38,11.00
2010,04,11,11,39,11.10
2010,04,11,11,40,11.20
2010,04,11,11,41,11.30
2010,04,11,11,42,11.30
2010,04,11,11,43,11.40
2010,04,11,11,44,11.50
2010,04,11,11,45,11.50
2010,04,11,11,46,11.60
2010,04,11,11,47,11.60
2010,04,11,11,48,11.70
2010,04,11,11,49,11.70
2010,04,11,11,50,11.70
2010,04,11,11,51,11.80
2010,04,11,11,52,11.80
2010,04,11,11,53,11.80
2010,04,11,11,54,11.90
2010,04,11,11,55,11.90
2010,04,11,11,56,12.00
2010,04,11,11,57,12.00
2010,04,11,11,58,12.10
2010,04,11,11,59,12.10
2010,04,11,12,00,12.20
2010,04,11,12,01,12.20
2010,04,11,12,02,12.20
2010,04,11,12,03,12.30
2010,04,11,12,04,12.30
2010,04,11,12,05,12.40
2010,04,11,12,06,12.40
2010,04,11,12,07,12.50
2010,04,11,12,08,12.50
2010,04,11,12,09,12.60
2010,04,11,12,10,12.60
2010,04,11,12,11,12.70
2010,04,11,12,12,12.70
2010,04,11,12,13,12.80
2010,04,11,12,14,12.80
2010,04,11,12,15,12.90
2010,04,11,12,16,12.90
2010,04,11,12,17,13.00
2010,04,11,12,18,13.00
2010,04,11,12,19,13.10
2010,04,11,12,20,13.10
2010,04,11,12,21,13.10
2010,04,11,12,22,13.20
2010,04,11,12,23,13.20
2010,04,11,12,24,13.10
2010,04,11,12,25,13.10
2010,04,11,12,26,13.10
2010,04,11,12,27,13.10
2010,04,11,12,28,13.10
2010,04,11,12,29,13.10
2010,04,11,12,30,13.10
2010,04,11,12,31,13.10
2010,04,11,12,32,13.00
2010,04,11,12,33,13.00
2010,04,11,12,34,12.90
2010,04,11,12,35,12.90
2010,04,11,12,36,12.90
2010,04,11,12,37,12.90
2010,04,11,12,38,13.00
2010,04,11,12,39,12.90
2010,04,11,12,40,12.90
2010,04,11,12,41,12.90
2010,04,11,12,42,12.90
2010,04,11,12,43,12.90
2010,04,11,12,44,12.80
2010,04,11,12,45,12.80
2010,04,11,12,46,12.80
2010,04,11,12,47,12.90
2010,04,11,12,48,12.90
2010,04,11,12,49,13.00
2010,04,11,12,50,13.10
2010,04,11,12,51,13.20
2010,04,11,12,52,13.30
2010,04,11,12,53,13.30
2010,04,11,12,54,13.30
2010,04,11,12,55,13.30
2010,04,11,12,56,13.20
2010,04,11,12,57,13.10
2010,04,11,12,58,12.90
2010,04,11,12,59,12.80
2010,04,11,13,00,12.60
2010,04,11,13,01,12.40
2010,04,11,13,02,12.30
2010,04,11,13,03,12.20
2010,04,11,13,04,12.20
2010,04,11,13,05,12.20
2010,04,11,13,06,12.20
2010,04,11,13,07,12.20
2010,04,11,13,08,12.20
2010,04,11,13,09,12.20
2010,04,11,13,10,12.30
2010,04,11,13,11,12.40
2010,04,11,13,12,12.50
2010,04,11,13,13,12.60
2010,04,11,13,14,12.70
2010,04,11,13,15,12.80
2010,04,11,13,16,13.00
2010,04,11,13,17,13.10
2010,04,11,13,18,13.30
2010,04,11,13,19,13.30
2010,04,11,13,20,13.30
2010,04,11,13,21,13.20
2010,04,11,13,22,13.20
2010,04,11,13,23,13.20
2010,04,11,13,24,13.30
2010,04,11,13,25,13.30
2010,04,11,13,26,13.40
2010,04,11,13,27,13.40
2010,04,11,13,28,13.50
2010,04,11,13,29,13.50
2010,04,11,13,30,13.50
2010,04,11,13,31,13.50
2010,04,11,13,32,13.40
2010,04,11,13,33,13.30
2010,04,11,13,34,13.20
2010,04,11,13,35,13.10
2010,04,11,13,36,13.10
2010,04,11,13,37,13.00
2010,04,11,13,38,12.90
2010,04,11,13,39,12.80
2010,04,11,13,40,12.70
2010,04,11,13,41,12.60
2010,04,11,13,42,12.60
2010,04,11,13,43,12.60
2010,04,11,13,44,12.60
2010,04,11,13,45,12.60
2010,04,11,13,46,12.60
2010,04,11,13,47,12.60
2010,04,11,13,48,12.50
2010,04,11,13,49,12.50
2010,04,11,13,50,12.50
2010,04,11,13,51,12.50
2010,04,11,13,52,12.50
2010,04,11,13,53,12.50
2010,04,11,13,54,12.70
2010,04,11,13,55,12.80
2010,04,11,13,56,12.80
2010,04,11,13,57,12.70
2010,04,11,13,58,12.70
2010,04,11,13,59,12.60
2010,04,11,14,00,12.60
2010,04,11,14,01,12.60
2010,04,11,14,02,12.60
2010,04,11,14,03,12.60
2010,04,11,14,04,12.50
2010,04,11,14,05,12.50
2010,04,11,14,06,12.40
2010,04,11,14,07,12.40
2010,04,11,14,08,12.40
2010,04,11,14,09,12.40
2010,04,11,14,10,12.30
2010,04,11,14,11,12.30
2010,04,11,14,12,12.30
2010,04,11,14,13,12.30
2010,04,11,14,14,12.30
2010,04,11,14,15,12.30
2010,04,11,14,16,12.20
2010,04,11,14,17,12.20
2010,04,11,14,18,12.10
2010,04,11,14,19,12.10
2010,04,11,14,20,12.10
2010,04,11,14,21,12.10
2010,04,11,14,22,12.10
2010,04,11,14,23,12.20
2010,04,11,14,24,12.20
2010,04,11,14,25,12.30
2010,04,11,14,26,12.40
2010,04,11,14,27,12.50
2010,04,11,14,28,12.50
2010,04,11,14,29,12.50
2010,04,11,14,30,12.50
2010,04,11,14,31,12.60
2010,04,11,14,32,12.60
2010,04,11,14,33,12.70
2010,04,11,14,34,12.70
2010,04,11,14,35,12.70
2010,04,11,14,36,12.80
2010,04,11,14,37,12.80
2010,04,11,14,38,12.90
2010,04,11,14,39,12.90
2010,04,11,14,40,12.90
2010,04,11,14,41,12.90
2010,04,11,14,42,12.90
2010,04,11,14,43,12.90
2010,04,11,14,44,13.00
2010,04,11,14,45,13.10
2010,04,11,14,46,13.10
2010,04,11,14,47,13.20
2010,04,11,14,48,13.30
2010,04,11,14,49,13.40
2010,04,11,14,50,13.60
2010,04,11,14,51,13.70
2010,04,11,14,52,13.90
2010,04,11,14,53,14.10
2010,04,11,14,54,14.20
2010,04,11,14,55,14.30
2010,04,11,14,56,14.40
2010,04,11,14,57,14.50
2010,04,11,14,58,14.50
2010,04,11,14,59,14.60
2010,04,11,15,00,14.70
2010,04,11,15,01,14.70
2010,04,11,15,02,14.80
2010,04,11,15,03,14.90
2010,04,11,15,04,15.00
2010,04,11,15,05,15.10
2010,04,11,15,06,15.20
2010,04,11,15,07,15.30
2010,04,11,15,08,15.30
2010,04,11,15,09,15.30
2010,04,11,15,10,15.30
2010,04,11,15,11,15.30
2010,04,11,15,12,15.30
2010,04,11,15,13,15.30
2010,04,11,15,14,15.30
2010,04,11,15,15,15.30
2010,04,11,15,16,15.30
2010,04,11,15,17,15.30
2010,04,11,15,18,15.30
2010,04,11,15,19,15.30
2010,04,11,15,20,15.30
2010,04,11,15,21,15.30
2010,04,11,15,22,15.20
2010,04,11,15,23,15.20
2010,04,11,15,24,15.20
2010,04,11,15,25,15.20
2010,04,11,15,26,15.20
2010,04,11,15,27,15.20
2010,04,11,15,28,15.20
2010,04,11,15,29,15.10
2010,04,11,15,30,15.10
2010,04,11,15,31,15.00
2010,04,11,15,32,15.10
2010,04,11,15,33,15.10
2010,04,11,15,34,15.20
2010,04,11,15,35,15.20
2010,04,11,15,36,15.20
2010,04,11,15,37,15.20
2010,04,11,15,38,15.30
2010,04,11,15,39,15.30
2010,04,11,15,40,15.40
2010,04,11,15,41,15.40
2010,04,11,15,42,15.30
2010,04,11,15,43,15.30
2010,04,11,15,44,15.20
2010,04,11,15,45,15.20
2010,04,11,15,46,15.20
2010,04,11,15,47,15.20
2010,04,11,15,48,15.20
2010,04,11,15,49,15.30
2010,04,11,15,50,15.30
2010,04,11,15,51,15.30
2010,04,11,15,52,15.30
2010,04,11,15,53,15.40
2010,04,11,15,54,15.40
2010,04,11,15,55,15.40
2010,04,11,15,56,15.30
2010,04,11,15,57,15.30
2010,04,11,15,58,15.30
2010,04,11,15,59,15.40
2010,04,11,16,00,15.40
2010,04,11,16,01,15.40
2010,04,11,16,02,15.40
2010,04,11,16,03,15.40
2010,04,11,16,04,15.50
2010,04,11,16,05,15.50
2010,04,11,16,06,15.60
2010,04,11,16,07,15.60
2010,04,11,16,08,15.70
2010,04,11,16,09,15.70
2010,04,11,16,10,15.70
2010,04,11,16,11,15.80
2010,04,11,16,12,15.80
2010,04,11,16,13,15.90
2010,04,11,16,14,15.90
2010,04,11,16,15,15.90
2010,04,11,16,16,15.90
2010,04,11,16,17,15.90
2010,04,11,16,18,15.90
2010,04,11,16,19,15.80
2010,04,11,16,20,15.80
2010,04,11,16,21,15.80
2010,04,11,16,22,15.80
2010,04,11,16,23,15.80
2010,04,11,16,24,15.80
2010,04,11,16,25,15.80
2010,04,11,16,26,15.80
2010,04,11,16,27,15.80
2010,04,11,16,28,15.80
2010,04,11,16,29,15.80
2010,04,11,16,30,15.70
2010,04,11,16,31,15.60
2010,04,11,16,32,15.60
2010,04,11,16,33,15.60
2010,04,11,16,34,15.60
2010,04,11,16,35,15.60
2010,04,11,16,36,15.60
2010,04,11,16,37,15.70
2010,04,11,16,38,15.70
2010,04,11,16,39,15.60
2010,04,11,16,40,15.60
2010,04,11,16,41,15.70
2010,04,11,16,42,15.70
2010,04,11,16,43,15.70
2010,04,11,16,44,15.70
2010,04,11,16,45,15.70
2010,04,11,16,46,15.70
2010,04,11,16,47,15.70
2010,04,11,16,48,15.70
2010,04,11,16,49,15.70
2010,04,11,16,50,15.70
2010,04,11,16,51,15.70
2010,04,11,16,52,15.60
2010,04,11,16,53,15.60
2010,04,11,16,54,15.60
2010,04,11,16,55,15.60
2010,04,11,16,56,15.60
2010,04,11,16,57,15.60
2010,04,11,16,58,15.60
2010,04,11,16,59,15.50
2010,04,11,17,00,15.50
2010,04,11,17,01,15.50
2010,04,11,17,02,15.50
2010,04,11,17,03,15.50
2010,04,11,17,04,15.50
2010,04,11,17,05,15.50
2010,04,11,17,06,15.60
2010,04,11,17,07,15.60
2010,04,11,17,08,15.60
2010,04,11,17,09,15.50
2010,04,11,17,10,15.40
2010,04,11,17,11,15.30
2010,04,11,17,12,15.20
2010,04,11,17,13,15.20
2010,04,11,17,14,15.20
2010,04,11,17,15,15.10
2010,04,11,17,16,15.00
2010,04,11,17,17,14.90
2010,04,11,17,18,14.90
2010,04,11,17,19,14.90
2010,04,11,17,20,14.80
2010,04,11,17,21,14.80
2010,04,11,17,22,14.70
2010,04,11,17,23,14.70
2010,04,11,17,24,14.60
2010,04,11,17,25,14.60
2010,04,11,17,26,14.60
2010,04,11,17,27,14.60
2010,04,11,17,28,14.50
2010,04,11,17,29,14.50
2010,04,11,17,30,14.40
2010,04,11,17,31,14.40
2010,04,11,17,32,14.30
2010,04,11,17,33,14.20
2010,04,11,17,34,14.20
2010,04,11,17,35,14.20
2010,04,11,17,36,14.20
2010,04,11,17,37,14.30
2010,04,11,17,38,14.30
2010,04,11,17,39,14.20
2010,04,11,17,40,14.10
2010,04,11,17,41,14.10
2010,04,11,17,42,14.00
2010,04,11,17,43,14.00
2010,04,11,17,44,13.90
2010,04,11,17,45,13.90
2010,04,11,17,46,13.90
2010,04,11,17,47,13.90
2010,04,11,17,48,13.90